SCP
0 0 0 0 0 -0 0 0 0 0 0 0 0 0 0 0 0 0 0 0 0 0 0 0 0 0 0 0 0 0 0 0 0 0 0 0 0 0 0 0 0 0 0 0
0 0 0 0 0 0 0 0 0 0 0 0 0 0 0 0 0 0 0 0 0 0 0 0 0 0 0 0 0 0 0 0 0 0 0 0 0 0 0 0 0 0 0 0
0 0 0 0 0 0 0 0 0 0 0 0 0 0 0 0 0 0 0 0 0 0 0 0 0 0 0 0 0 0 0 0 0 0 0 0 0 0 0 0 0 0 0 0
0 0 0 0 0 0 0 0 0 0 0 0 0 0 0 0 0 0 0 0 0 0 0 0 0 0 0 0 0 0 0 0 0 0 0 0 0 0 0 -0 0 0 0 0
0 0 0 0 0 0 0 0 0 0 0 0 0 0 0 0 0 0 0 0 0 0 0 0 0 0 0 0 0 0 0 0 0 0 0 0 0 -0 0 0 0 0 0 0
0 0 0 0 0 0 0 0 0 0 0 0 0 0 0 0 0 0 0 0 0 0 0 0 0 0 0 0 0 0 0 0 0 0 0 0 0 0 0 0 0 0 0 0
0 0 0 0 0 0 0 0 0 0 0 0 0 0 0 0 0 0 0 0 0 0 0 0 0 0 0 0 0 0 0 0 0 0 0 0 0 0 0 -0 0 0 0 0
0 0 0 0 0 0 0 0 0 0 0 0 0 0 0 0 0 0 0 0 0 0 0 0 0 0 0 0 0 0 0 0 0 0 0 0 0 0 0 0 -0 0 0 -0
0 0 0 0 0 0 0 0 0 0 0 0 0 0 0 0 0 0 0 0 0 0 0 0 0 0 0 0 0 0 0 0 0 0 0 0 0 0 0 0 0 0 0 -0
0 0 0 0 0 0 0 0 0 0 0 0 0 0 0 0 0 0 0 0 0 0 0 0 0 0 0 0 0 0 0 0 0 0 0 0 0 -0 -0 0 0 -0 0 -0
0 0 0 0 0 0 0 0 0 0 0 0 0 0 0 0 0 0 0 0 0 0 0 0 0 0 0 0 0 0 0 0 0 0 0 0 0 -0 0 0 0 0 -0 -0
0 0 0 0 0 0 0 0 0 0 0 0 0 0 0 0 0 0 0 0 0 0 0 0 0 0 0 0 0 0 0 0 0 0 0 0 0 0 0 0 0 -0 -0 -0
0 0 0 0 0 0 0 0 0 0 0 0 0 0 0 0 0 0 0 0 0 0 0 0 0 0 0 0 0 0 0 0 0 0 0 0 0 0 0 0 -0 -0 -0 -0
0 0 0 0 0 0 0 0 0 0 0 0 0 0 0 0 0 0 0 0 0 0 0 0 0 0 0 0 0 0 0 0 0 0 0 -0 0 -0 -0 -0 -0 -0 -0 -0
0 0 0 0 0 0 0 0 0 0 0 0 0 0 0 0 0 0 0 0 0 0 0 0 0 0 0 0 0 0 0 0 0 0 0 0 -0 -0 -0 -0 -0 -0 -0 -0
0 0 0 0 0 0 0 0 0 0 0 0 0 0 0 0 0 0 0 0 0 0 0 0 0 0 0 0 0 0 0 0 0 0 -0 -0 -0 -0 -0 -0 -0 -0 0 0
0 0 0 0 0 0 0 0 0 0 0 0 0 0 0 0 0 0 0 0 0 0 0 0 0 0 0 0 0 0 0 0 0 -0 -0 -0 0 -0 -0 0 -0 -0 0 0
0 -0 0 -0 0 0 0 0 0 0 0 0 0 0 0 0 0 0 0 0 0 0 0 0 0 0 0 0 -0 0 0 0 0 0 -0 -0 -0 -0 0 0 0 0 0 -0
0 -0 0 0 0 0 0 0 0 0 0 0 0 0 0 0 0 0 0 0 0 0 0 0 0 0 0 0 -0 0 0 0 -0 0 -0 -0 0 0 0 0 0 0 -0 -0
0 0 0 0 0 0 0 0 0 0 0 0 0 0 0 0 0 0 0 0 0 0 0 0 0 0 0 0 0 0 0 0 0 0 0 0 0 0 0 0 0 0 -0 0
0 0 0 0 0 0 0 0 0 0 0 0 0 0 0 0 0 -0 0 0 0 0 -0 0 0 0 0 0 0 0 0 0 -0 0 0 0 0 0 0 0 0 0 0 0
0 0 0 0 0 0 0 0 0 0 0 0 0 0 0 0 0 -0 -0 0 0 -0 0 0 -0 0 0 0 0 0 0 -0 -0 0 0 0 0 0 0 0 0 0 0 0
0 0 0 0 0 0 0 0 0 0 0 -0 0 0 0 -0 0 0 0 0 -0 0 0 0 -0 0 0 0 -0 0 0 -0 -0 0 0 0 0 0 0 0 0 0 0 0
0 0 0 0 0 0 0 0 0 0 0 0 0 0 0 -0 -0 -0 0 0 0 0 0 -0 -0 0 0 0 -0 0 -0 -0 0 0 0 0 0 0 0 0 0 0 0 0
0 0 0 0 0 0 0 0 0 0 0 0 0 0 0 0 -0 -0 -0 0 0 -0 -0 -0 -0 0 0 -0 -0 0 -0 -0 0 0 0 0 0 0 0 0 0 0 0 0
0 0 0 0 0 0 0 0 0 0 0 0 -0 -0 -0 -0 0 0 0 0 0 -0 -0 -0 0 0 0 -0 -0 0 -0 -0 0 0 0 0 0 0 0 0 0 0 0 0
0 0 0 0 0 0 0 0 0 0 0 0 0 -0 -0 -0 0 0 0 0 0 0 -0 -0 0 0 0 -0 -0 0 -0 -0 0 0 0 0 0 0 0 0 0 0 0 0
Wind_Speed_500mb
65 64 59 58 65 64 60 27 6 26 17 11 7 2 7 16 10 23 9 5 3 7 8 9 10 12 12 3 4 6 6 7 14 18 30 14 10 8 11 5 6 9 7 21
62 61 58 49 51 54 60 35 12 18 18 6 7 12 8 8 7 8 7 8 5 7 7 12 8 9 8 36 10 8 8 8 8 16 6 5 5 8 16 12 9 26 14 17
61 59 57 49 37 40 39 19 9 13 17 11 8 6 8 9 13 8 10 9 2 8 8 13 15 25 16 7 22 51 27 11 17 20 22 8 15 18 21 16 9 15 22 44
64 57 53 48 33 32 23 13 4 5 8 6 5 7 5 6 6 9 18 9 2 10 10 11 13 9 21 26 34 1 4 10 14 31 36 38 47 46 37 32 31 21 24 34
60 55 49 43 34 21 13 13 11 8 15 19 10 4 6 4 5 5 10 11 14 10 13 17 42 26 20 15 7 4 2 6 6 16 35 33 40 39 32 30 18 23 27 37
56 53 47 40 32 18 6 10 13 12 10 4 4 6 7 8 10 20 30 17 22 20 23 36 58 63 57 31 7 4 3 4 6 9 14 28 16 11 4 4 19 24 19 9
55 51 48 41 30 14 12 16 16 4 9 3 9 9 15 27 13 17 40 41 10 16 61 65 33 12 11 17 18 26 6 4 5 10 12 8 4 10 8 18 33 17 14 22
54 53 52 42 28 17 20 17 17 7 7 11 30 17 12 24 43 20 18 24 16 40 31 9 12 8 8 5 8 14 13 3 7 6 4 18 17 7 10 18 41 12 11 37
53 57 48 38 27 14 20 20 23 18 9 11 21 8 22 6 6 12 13 31 21 17 5 6 5 5 6 9 16 10 9 14 5 4 7 8 2 17 34 16 14 12 34 40
53 55 45 39 26 15 22 29 22 22 16 43 23 13 13 12 6 7 14 18 24 10 4 5 2 7 5 6 8 7 8 4 9 7 9 12 3 25 27 3 11 46 55 58
44 49 41 35 23 13 22 29 29 32 25 58 73 60 45 25 17 6 15 21 5 5 5 1 4 5 6 6 8 6 6 5 6 5 6 12 5 10 4 15 47 59 66 65
36 40 35 28 23 16 20 31 32 34 44 59 79 84 86 80 73 50 16 14 5 8 5 5 5 7 5 6 7 3 7 9 5 10 9 3 18 25 43 33 53 63 66 81
29 34 29 25 23 24 24 28 32 38 33 57 39 54 24 7 21 16 24 25 26 16 14 9 4 8 4 6 9 6 7 8 7 4 5 8 44 35 28 62 62 73 73 85
26 27 27 25 25 24 23 29 29 28 24 13 21 28 86 69 38 47 58 48 28 19 9 9 6 5 15 6 10 10 7 5 8 11 16 28 15 42 58 66 67 69 73 82
29 30 29 26 26 24 24 26 31 29 27 11 43 86 11 34 40 22 41 58 64 20 5 8 6 8 7 6 5 6 11 8 4 7 14 18 36 56 56 58 65 68 71 69
32 27 22 22 24 20 17 10 6 8 22 14 8 31 39 23 26 25 25 44 56 33 12 12 12 10 9 5 6 12 27 21 23 12 38 44 54 40 46 60 61 58 44 31
27 28 28 29 29 24 16 10 22 35 18 9 14 14 14 38 24 4 14 33 28 25 15 13 11 17 15 5 12 1 9 17 24 24 28 26 23 37 50 48 46 30 18 22
27 27 32 36 31 17 4 2 13 13 19 10 6 10 22 19 15 8 8 15 19 21 12 7 7 7 9 9 13 14 14 17 14 18 20 31 36 36 36 36 28 31 32 46
25 25 33 20 1 5 14 31 34 24 15 7 7 5 8 25 13 14 6 12 7 11 6 7 8 5 8 12 10 8 11 8 12 17 19 22 27 32 37 31 28 31 35 41
20 19 9 6 2 24 39 8 3 4 6 8 8 8 7 16 10 10 5 6 5 5 8 7 5 6 3 4 2 8 8 9 8 17 18 26 31 33 31 25 25 28 29 39
12 10 8 18 37 18 6 5 6 5 5 10 12 16 10 15 7 6 7 4 3 3 6 4 2 6 3 9 3 6 8 9 7 7 9 14 15 23 24 20 20 28 36 40
13 18 26 17 6 5 5 3 5 8 5 4 7 18 22 13 11 7 9 4 1 9 3 1 6 5 8 11 2 2 6 9 9 9 11 13 12 15 13 14 18 33 41 46
10 6 6 4 4 5 6 4 5 4 4 8 18 14 11 8 8 13 5 6 8 2 1 6 5 4 14 8 0 5 6 12 10 12 11 12 12 10 10 13 19 23 35 46
5 5 9 7 8 9 8 7 3 10 12 30 45 18 9 11 8 4 5 7 1 3 2 6 3 8 10 6 1 5 9 13 11 13 13 15 15 15 12 15 22 27 34 44
6 7 9 10 20 18 17 19 29 35 36 30 31 16 8 6 8 5 7 5 6 6 5 5 5 13 9 6 6 4 11 15 11 12 18 19 17 15 17 18 22 27 33 43
9 15 11 19 15 21 18 17 19 27 26 31 9 6 4 7 7 7 6 9 5 6 5 11 12 9 8 6 7 8 15 15 15 16 18 20 17 17 21 25 28 35 40 50
11 16 30 35 35 31 33 29 17 13 26 4 5 6 9 6 7 5 10 5 3 13 11 5 6 4 8 8 10 14 19 17 20 19 18 24 23 23 25 28 35 38 46 51
Wind_Direction_500mb
343 343 343 347 348 350 359 359 3 353 7 46 48 59 309 309 287 337 302 330 307 277 305 267 254 237 221 62 180 211 235 282 272 241 263 235 175 217 165 223 223 233 236 263
345 344 343 347 351 355 354 344 314 351 9 66 347 319 295 267 316 299 347 303 6 2 302 338 239 263 277 308 213 209 172 241 298 315 17 72 195 205 207 234 236 245 261 260
340 341 341 344 353 353 355 348 354 347 38 96 107 344 287 300 312 276 345 277 312 12 290 229 276 283 307 343 262 285 272 236 221 257 256 265 265 251 247 237 243 274 247 278
335 336 336 339 349 352 4 357 4 17 313 338 341 199 257 275 321 312 322 303 31 347 292 285 257 251 292 297 291 343 212 253 229 252 264 269 266 270 270 264 261 262 284 274
336 337 335 334 337 352 4 1 350 321 284 296 309 264 250 238 333 270 277 237 295 309 244 233 292 295 293 251 313 273 24 272 293 276 263 268 276 274 264 260 277 286 284 284
338 338 337 332 328 337 4 326 321 317 277 300 344 255 268 283 4 282 248 277 314 292 258 287 284 279 274 249 236 273 305 298 279 265 321 307 289 312 135 290 282 281 278 304
335 335 335 332 320 332 309 298 309 272 274 212 213 260 286 285 273 261 284 289 240 277 313 307 300 265 244 203 226 217 222 257 246 287 326 340 217 73 331 295 284 276 277 313
333 333 332 327 313 288 302 293 293 248 268 261 289 266 231 294 303 279 266 296 284 314 314 340 336 342 1 240 231 206 211 205 275 295 284 271 176 55 327 319 301 292 306 321
332 332 335 328 314 283 281 269 280 246 277 241 246 303 294 265 277 316 268 310 321 317 39 41 4 290 290 315 328 236 203 238 252 292 277 283 52 332 314 297 270 38 340 314
333 339 340 330 317 300 268 275 270 250 240 276 271 237 266 290 239 239 290 330 331 343 28 44 26 291 307 287 293 289 285 265 245 251 259 277 37 308 307 345 292 328 316 305
333 341 343 337 323 306 287 276 282 268 254 278 280 275 267 252 228 218 297 333 277 333 62 135 250 243 275 295 253 243 270 282 246 241 266 286 324 287 354 295 301 306 306 303
330 340 344 342 326 313 303 277 291 285 254 272 286 285 279 271 267 264 242 240 299 258 101 228 265 264 241 252 277 161 262 208 269 211 241 193 291 271 298 292 304 307 306 305
330 341 339 339 332 321 307 298 298 289 284 297 280 300 300 286 273 247 221 239 223 225 231 190 233 245 211 233 235 253 252 170 239 300 232 282 304 317 321 316 307 310 313 311
331 337 334 330 321 313 298 287 299 288 283 290 293 301 305 302 284 252 247 237 218 225 226 221 232 223 203 237 253 249 250 170 236 251 285 304 264 317 319 317 318 318 327 322
338 329 330 328 329 317 304 294 284 285 271 281 294 308 333 304 309 274 237 235 229 242 249 224 235 226 233 230 258 244 190 216 233 273 289 289 292 305 321 317 316 324 321 328
334 331 331 338 327 318 319 312 347 6 323 297 303 302 305 341 320 269 244 224 226 219 229 226 231 224 207 266 250 249 225 237 291 268 295 296 298 317 322 319 324 331 340 8
330 325 315 314 317 309 289 274 298 309 300 276 297 284 292 328 330 302 202 215 213 211 224 237 242 247 234 234 268 354 257 271 297 297 306 301 312 319 327 331 337 0 41 51
314 317 308 309 308 305 11 5 327 319 270 261 279 279 311 348 315 312 181 169 201 206 226 240 218 212 212 255 267 284 299 297 301 312 310 301 321 337 346 350 10 43 60 87
321 314 311 315 342 353 340 314 304 283 242 274 246 285 281 332 312 292 247 194 201 212 224 229 195 181 231 240 251 299 300 312 299 329 336 343 348 355 2 16 48 67 68 90
338 324 304 280 295 318 313 300 222 207 222 238 258 256 268 307 307 289 322 257 242 236 231 171 216 249 286 215 269 343 326 336 329 319 344 350 356 4 7 23 57 84 87 97
0 325 283 294 311 305 230 233 214 176 246 232 247 244 257 270 233 276 257 292 277 311 273 148 262 277 266 191 1 356 325 342 343 327 354 355 360 6 16 52 76 95 107 100
316 306 306 312 307 256 273 254 216 203 250 206 250 274 249 266 245 261 261 288 359 251 156 212 285 260 181 175 45 27 20 33 60 45 38 24 30 20 31 84 92 105 113 117
333 318 281 251 260 263 253 208 242 253 264 244 305 293 265 270 239 273 271 240 235 73 58 234 236 154 170 187 36 97 63 81 87 67 64 81 49 33 61 91 110 109 106 113
301 296 280 233 216 232 205 195 256 270 261 298 310 287 255 257 238 243 255 259 71 331 305 251 327 175 172 193 122 131 100 97 86 97 94 96 75 97 81 111 117 123 117 118
251 232 245 242 243 265 265 276 289 296 315 311 314 282 251 279 268 203 253 261 247 195 236 302 8 156 165 160 152 142 114 105 94 105 116 103 90 101 112 125 128 127 127 124
231 232 250 254 277 268 259 276 274 309 335 329 269 266 282 253 279 224 223 325 36 300 303 339 143 164 149 138 147 148 136 126 124 112 120 119 118 121 129 131 130 129 130 129
232 241 243 254 274 272 273 283 289 300 331 274 290 268 239 262 267 331 355 357 321 309 342 133 151 164 149 143 149 146 146 131 135 124 119 130 134 123 117 123 129 135 140 138
Wind_Speed_850mb
65 64 59 58 65 64 60 27 6 26 17 11 7 2 7 16 10 23 9 5 3 7 8 9 10 12 12 3 4 6 6 7 14 18 30 14 10 8 11 5 6 9 7 21
62 61 58 49 51 54 60 35 12 18 18 6 7 12 8 8 7 8 7 8 5 7 7 12 8 9 8 36 10 8 8 8 8 16 6 5 5 8 16 12 9 26 14 17
61 59 57 49 37 40 39 19 9 13 17 11 8 6 8 9 13 8 10 9 2 8 8 13 15 25 16 7 22 51 27 11 17 20 22 8 15 18 21 16 9 15 22 44
64 57 53 48 33 32 23 13 4 5 8 6 5 7 5 6 6 9 18 9 2 10 10 11 13 9 21 26 34 1 4 10 14 31 36 38 47 46 37 32 31 21 24 34
60 55 49 43 34 21 13 13 11 8 15 19 10 4 6 4 5 5 10 11 14 10 13 17 42 26 20 15 7 4 2 6 6 16 35 33 40 39 32 30 18 23 27 37
56 53 47 40 32 18 6 10 13 12 10 4 4 6 7 8 10 20 30 17 22 20 23 36 58 63 57 31 7 4 3 4 6 9 14 28 16 11 4 4 19 24 19 9
55 51 48 41 30 14 12 16 16 4 9 3 9 9 15 27 13 17 40 41 10 16 61 65 33 12 11 17 18 26 6 4 5 10 12 8 4 10 8 18 33 17 14 22
54 53 52 42 28 17 20 17 17 7 7 11 30 17 12 24 43 20 18 24 16 40 31 9 12 8 8 5 8 14 13 3 7 6 4 18 17 7 10 18 41 12 11 37
53 57 48 38 27 14 20 20 23 18 9 11 21 8 22 6 6 12 13 31 21 17 5 6 5 5 6 9 16 10 9 14 5 4 7 8 2 17 34 16 14 12 34 40
53 55 45 39 26 15 22 29 22 22 16 43 23 13 13 12 6 7 14 18 24 10 4 5 2 7 5 6 8 7 8 4 9 7 9 12 3 25 27 3 11 46 55 58
44 49 41 35 23 13 22 29 29 32 25 58 73 60 45 25 17 6 15 21 5 5 5 1 4 5 6 6 8 6 6 5 6 5 6 12 5 10 4 15 47 59 66 65
36 40 35 28 23 16 20 31 32 34 44 59 79 84 86 80 73 50 16 14 5 8 5 5 5 7 5 6 7 3 7 9 5 10 9 3 18 25 43 33 53 63 66 81
29 34 29 25 23 24 24 28 32 38 33 57 39 54 24 7 21 16 24 25 26 16 14 9 4 8 4 6 9 6 7 8 7 4 5 8 44 35 28 62 62 73 73 85
26 27 27 25 25 24 23 29 29 28 24 13 21 28 86 69 38 47 58 48 28 19 9 9 6 5 15 6 10 10 7 5 8 11 16 28 15 42 58 66 67 69 73 82
29 30 29 26 26 24 24 26 31 29 27 11 43 86 11 34 40 22 41 58 64 20 5 8 6 8 7 6 5 6 11 8 4 7 14 18 36 56 56 58 65 68 71 69
32 27 22 22 24 20 17 10 6 8 22 14 8 31 39 23 26 25 25 44 56 33 12 12 12 10 9 5 6 12 27 21 23 12 38 44 54 40 46 60 61 58 44 31
27 28 28 29 29 24 16 10 22 35 18 9 14 14 14 38 24 4 14 33 28 25 15 13 11 17 15 5 12 1 9 17 24 24 28 26 23 37 50 48 46 30 18 22
27 27 32 36 31 17 4 2 13 13 19 10 6 10 22 19 15 8 8 15 19 21 12 7 7 7 9 9 13 14 14 17 14 18 20 31 36 36 36 36 28 31 32 46
25 25 33 20 1 5 14 31 34 24 15 7 7 5 8 25 13 14 6 12 7 11 6 7 8 5 8 12 10 8 11 8 12 17 19 22 27 32 37 31 28 31 35 41
20 19 9 6 2 24 39 8 3 4 6 8 8 8 7 16 10 10 5 6 5 5 8 7 5 6 3 4 2 8 8 9 8 17 18 26 31 33 31 25 25 28 29 39
12 10 8 18 37 18 6 5 6 5 5 10 12 16 10 15 7 6 7 4 3 3 6 4 2 6 3 9 3 6 8 9 7 7 9 14 15 23 24 20 20 28 36 40
13 18 26 17 6 5 5 3 5 8 5 4 7 18 22 13 11 7 9 4 1 9 3 1 6 5 8 11 2 2 6 9 9 9 11 13 12 15 13 14 18 33 41 46
10 6 6 4 4 5 6 4 5 4 4 8 18 14 11 8 8 13 5 6 8 2 1 6 5 4 14 8 0 5 6 12 10 12 11 12 12 10 10 13 19 23 35 46
5 5 9 7 8 9 8 7 3 10 12 30 45 18 9 11 8 4 5 7 1 3 2 6 3 8 10 6 1 5 9 13 11 13 13 15 15 15 12 15 22 27 34 44
6 7 9 10 20 18 17 19 29 35 36 30 31 16 8 6 8 5 7 5 6 6 5 5 5 13 9 6 6 4 11 15 11 12 18 19 17 15 17 18 22 27 33 43
9 15 11 19 15 21 18 17 19 27 26 31 9 6 4 7 7 7 6 9 5 6 5 11 12 9 8 6 7 8 15 15 15 16 18 20 17 17 21 25 28 35 40 50
11 16 30 35 35 31 33 29 17 13 26 4 5 6 9 6 7 5 10 5 3 13 11 5 6 4 8 8 10 14 19 17 20 19 18 24 23 23 25 28 35 38 46 51
Wind_Direction_850mb
343 343 343 347 348 350 359 359 3 353 7 46 48 59 309 309 287 337 302 330 307 277 305 267 254 237 221 62 180 211 235 282 272 241 263 235 175 217 165 223 223 233 236 263
345 344 343 347 351 355 354 344 314 351 9 66 347 319 295 267 316 299 347 303 6 2 302 338 239 263 277 308 213 209 172 241 298 315 17 72 195 205 207 234 236 245 261 260
340 341 341 344 353 353 355 348 354 347 38 96 107 344 287 300 312 276 345 277 312 12 290 229 276 283 307 343 262 285 272 236 221 257 256 265 265 251 247 237 243 274 247 278
335 336 336 339 349 352 4 357 4 17 313 338 341 199 257 275 321 312 322 303 31 347 292 285 257 251 292 297 291 343 212 253 229 252 264 269 266 270 270 264 261 262 284 274
336 337 335 334 337 352 4 1 350 321 284 296 309 264 250 238 333 270 277 237 295 309 244 233 292 295 293 251 313 273 24 272 293 276 263 268 276 274 264 260 277 286 284 284
338 338 337 332 328 337 4 326 321 317 277 300 344 255 268 283 4 282 248 277 314 292 258 287 284 279 274 249 236 273 305 298 279 265 321 307 289 312 135 290 282 281 278 304
335 335 335 332 320 332 309 298 309 272 274 212 213 260 286 285 273 261 284 289 240 277 313 307 300 265 244 203 226 217 222 257 246 287 326 340 217 73 331 295 284 276 277 313
333 333 332 327 313 288 302 293 293 248 268 261 289 266 231 294 303 279 266 296 284 314 314 340 336 342 1 240 231 206 211 205 275 295 284 271 176 55 327 319 301 292 306 321
332 332 335 328 314 283 281 269 280 246 277 241 246 303 294 265 277 316 268 310 321 317 39 41 4 290 290 315 328 236 203 238 252 292 277 283 52 332 314 297 270 38 340 314
333 339 340 330 317 300 268 275 270 250 240 276 271 237 266 290 239 239 290 330 331 343 28 44 26 291 307 287 293 289 285 265 245 251 259 277 37 308 307 345 292 328 316 305
333 341 343 337 323 306 287 276 282 268 254 278 280 275 267 252 228 218 297 333 277 333 62 135 250 243 275 295 253 243 270 282 246 241 266 286 324 287 354 295 301 306 306 303
330 340 344 342 326 313 303 277 291 285 254 272 286 285 279 271 267 264 242 240 299 258 101 228 265 264 241 252 277 161 262 208 269 211 241 193 291 271 298 292 304 307 306 305
330 341 339 339 332 321 307 298 298 289 284 297 280 300 300 286 273 247 221 239 223 225 231 190 233 245 211 233 235 253 252 170 239 300 232 282 304 317 321 316 307 310 313 311
331 337 334 330 321 313 298 287 299 288 283 290 293 301 305 302 284 252 247 237 218 225 226 221 232 223 203 237 253 249 250 170 236 251 285 304 264 317 319 317 318 318 327 322
338 329 330 328 329 317 304 294 284 285 271 281 294 308 333 304 309 274 237 235 229 242 249 224 235 226 233 230 258 244 190 216 233 273 289 289 292 305 321 317 316 324 321 328
334 331 331 338 327 318 319 312 347 6 323 297 303 302 305 341 320 269 244 224 226 219 229 226 231 224 207 266 250 249 225 237 291 268 295 296 298 317 322 319 324 331 340 8
330 325 315 314 317 309 289 274 298 309 300 276 297 284 292 328 330 302 202 215 213 211 224 237 242 247 234 234 268 354 257 271 297 297 306 301 312 319 327 331 337 0 41 51
314 317 308 309 308 305 11 5 327 319 270 261 279 279 311 348 315 312 181 169 201 206 226 240 218 212 212 255 267 284 299 297 301 312 310 301 321 337 346 350 10 43 60 87
321 314 311 315 342 353 340 314 304 283 242 274 246 285 281 332 312 292 247 194 201 212 224 229 195 181 231 240 251 299 300 312 299 329 336 343 348 355 2 16 48 67 68 90
338 324 304 280 295 318 313 300 222 207 222 238 258 256 268 307 307 289 322 257 242 236 231 171 216 249 286 215 269 343 326 336 329 319 344 350 356 4 7 23 57 84 87 97
0 325 283 294 311 305 230 233 214 176 246 232 247 244 257 270 233 276 257 292 277 311 273 148 262 277 266 191 1 356 325 342 343 327 354 355 360 6 16 52 76 95 107 100
316 306 306 312 307 256 273 254 216 203 250 206 250 274 249 266 245 261 261 288 359 251 156 212 285 260 181 175 45 27 20 33 60 45 38 24 30 20 31 84 92 105 113 117
333 318 281 251 260 263 253 208 242 253 264 244 305 293 265 270 239 273 271 240 235 73 58 234 236 154 170 187 36 97 63 81 87 67 64 81 49 33 61 91 110 109 106 113
301 296 280 233 216 232 205 195 256 270 261 298 310 287 255 257 238 243 255 259 71 331 305 251 327 175 172 193 122 131 100 97 86 97 94 96 75 97 81 111 117 123 117 118
251 232 245 242 243 265 265 276 289 296 315 311 314 282 251 279 268 203 253 261 247 195 236 302 8 156 165 160 152 142 114 105 94 105 116 103 90 101 112 125 128 127 127 124
231 232 250 254 277 268 259 276 274 309 335 329 269 266 282 253 279 224 223 325 36 300 303 339 143 164 149 138 147 148 136 126 124 112 120 119 118 121 129 131 130 129 130 129
232 241 243 254 274 272 273 283 289 300 331 274 290 268 239 262 267 331 355 357 321 309 342 133 151 164 149 143 149 146 146 131 135 124 119 130 134 123 117 123 129 135 140 138